Theta_e
295 295 296 297 296 296 296 297 297 297 299 299 298 299 301 302 299 298 307 312 307 309 313 318 319 321 321 322 325 328 330 330 328 329 330 330 332 335 338 342 346 351 347 350 353 351 351 347 347 348 351 352 354 356 357 359 357 359 362 362 361 361 362 361 360 359 360 361 362 363 361 360 360 360 359 359 360 361 361 360 358 355 356 358 360 361 363
293 294 295 296 295 296 296 296 297 298 298 298 300 300 302 302 303 305 306 308 306 309 319 316 321 322 322 323 327 328 328 327 327 325 327 330 331 333 335 338 340 348 348 348 359 357 354 350 350 349 352 355 355 355 356 358 359 359 363 361 361 361 361 361 361 362 363 362 362 363 362 361 362 361 360 361 360 360 362 361 361 359 357 359 360 360 361
291 293 295 296 296 295 294 296 297 298 298 299 300 300 302 303 303 304 305 306 305 311 320 319 322 324 322 322 323 325 327 325 325 326 328 332 332 334 334 339 338 342 345 347 353 344 344 353 355 354 356 357 356 355 356 356 359 360 361 362 361 361 361 361 363 364 364 363 363 363 363 363 362 362 362 361 361 361 362 361 361 363 359 358 359 360 360
289 293 293 294 295 295 294 293 295 295 296 295 297 298 302 301 301 304 304 302 303 310 314 320 320 322 321 322 323 324 324 324 325 328 329 333 334 335 337 338 340 339 342 349 348 350 347 347 344 353 358 359 356 353 355 355 357 358 359 360 359 360 362 364 365 365 364 364 363 363 363 363 363 363 363 362 361 361 361 361 362 362 360 358 358 360 361
288 292 294 293 294 293 290 291 294 296 297 298 300 301 303 303 305 302 299 301 309 311 321 316 319 319 320 321 322 322 323 326 329 329 328 330 331 332 335 336 337 338 342 344 349 352 353 345 345 351 351 353 358 354 356 357 358 356 357 357 359 361 362 364 366 365 365 364 364 363 364 364 364 363 363 362 361 360 360 362 362 361 360 359 358 359 361
287 291 292 294 290 283 285 297 300 299 296 298 297 297 300 303 305 304 306 306 310 310 311 312 316 317 318 320 323 325 324 328 327 327 329 329 330 332 334 335 337 340 342 344 344 348 353 355 353 353 354 350 352 355 355 358 357 358 358 359 360 361 363 365 367 367 366 365 364 364 365 365 364 363 362 362 361 360 359 361 362 361 361 360 360 360 360
288 291 291 287 281 284 297 300 301 301 300 300 299 300 302 303 305 306 305 306 307 309 309 311 317 319 320 322 321 322 324 325 324 325 326 326 328 329 331 332 334 337 340 342 346 346 347 352 356 357 355 348 350 353 360 353 358 360 360 361 362 362 363 366 368 367 367 366 365 365 365 366 365 363 362 362 361 359 356 358 361 362 360 359 360 360 359
291 288 286 278 281 294 298 298 300 302 302 301 300 298 301 303 305 306 304 306 308 309 309 311 317 319 319 320 322 322 321 322 322 322 323 324 325 326 328 330 333 336 337 340 342 344 350 350 351 352 353 353 347 345 349 351 351 356 361 364 363 362 364 366 368 368 367 366 366 366 366 366 365 364 362 363 362 360 357 356 360 363 364 361 360 360 360
285 287 285 285 293 292 294 295 297 300 301 302 301 297 301 306 307 308 310 310 313 309 310 315 317 318 318 316 317 319 319 319 320 321 322 324 324 325 327 329 331 335 338 340 342 347 347 349 351 345 346 350 350 346 346 344 347 353 356 362 364 363 364 366 367 367 366 366 367 367 366 365 365 364 363 363 363 363 359 357 356 359 361 360 362 360 360
291 286 285 284 285 281 288 296 304 307 308 308 308 305 301 309 311 312 311 310 311 313 313 313 315 316 314 310 311 317 317 317 318 320 322 323 324 325 326 329 331 334 336 339 342 344 347 350 353 356 355 351 350 350 347 346 348 352 354 356 364 364 363 365 367 368 367 367 367 367 366 365 365 365 364 364 363 364 360 357 355 358 362 363 363 361 360
289 287 283 282 280 285 294 302 305 308 307 309 308 302 295 307 310 310 311 310 311 311 310 311 313 312 309 309 312 314 315 316 318 319 321 322 322 323 325 326 328 331 334 337 340 344 348 350 353 355 355 356 353 350 350 347 350 350 352 356 362 364 363 364 367 369 369 368 369 369 367 367 366 365 364 364 364 365 361 360 360 363 364 363 361 362 360
288 287 284 283 288 287 294 305 305 306 308 307 304 290 291 305 309 309 310 309 309 310 310 311 310 310 308 310 310 315 315 316 317 319 319 320 320 321 324 326 328 330 334 336 339 343 347 351 354 355 354 356 356 355 351 351 349 350 351 354 360 365 365 365 368 370 369 370 370 369 370 369 370 369 367 364 364 362 362 360 360 360 362 362 362 361 360
288 287 286 288 290 298 303 304 306 307 309 302 291 286 297 304 308 309 310 309 310 310 309 310 307 310 312 312 313 315 315 315 316 318 320 320 320 320 322 323 327 328 331 334 337 341 346 354 355 354 356 355 355 355 357 351 349 349 354 359 361 365 366 364 366 370 370 371 370 371 372 370 369 368 366 366 365 364 361 360 359 358 359 361 361 362 361
286 287 285 285 289 299 301 305 305 308 300 289 288 300 304 307 307 309 310 309 310 310 309 308 309 310 312 314 314 314 314 314 315 316 317 318 318 320 322 324 325 326 328 332 337 342 348 352 354 356 358 359 358 357 356 354 354 353 357 361 363 366 367 365 365 368 369 370 371 370 371 372 370 369 369 369 368 365 362 362 361 358 357 358 358 359 360
290 289 285 284 281 296 302 302 301 306 295 297 300 304 307 309 308 308 309 309 310 310 308 310 310 310 310 311 312 313 313 314 313 314 315 315 316 316 318 320 322 324 326 330 335 342 349 352 354 355 357 358 357 355 356 359 357 358 362 363 364 366 368 366 366 368 369 370 369 370 370 370 370 368 369 368 368 368 366 364 362 359 359 359 358 358 360
284 285 283 284 294 296 302 301 294 301 304 306 307 306 304 308 308 308 308 309 310 310 309 309 309 310 310 311 313 313 313 314 314 314 314 316 316 316 318 319 321 323 325 329 333 342 350 354 356 357 359 360 357 354 356 365 360 360 366 366 367 367 367 366 368 368 369 369 371 371 370 370 370 369 368 368 368 368 367 365 362 361 360 360 358 356 356
289 286 290 296 300 301 302 303 303 304 307 309 308 307 306 306 306 309 308 308 310 310 310 309 309 309 310 310 312 312 312 313 313 313 314 315 314 315 315 317 320 322 323 325 332 341 350 355 357 360 363 361 361 359 364 368 364 363 367 366 366 366 367 367 368 369 370 369 370 370 371 370 368 368 368 368 367 369 368 365 363 361 361 360 358 355 354
297 298 299 302 301 300 300 302 306 305 306 308 307 306 305 307 308 308 307 308 309 309 310 308 309 309 310 310 311 312 313 313 313 315 314 314 315 315 316 317 318 320 322 325 331 341 351 357 356 366 367 364 361 366 373 370 367 368 369 367 366 367 367 367 368 369 369 369 370 369 370 370 370 370 368 366 366 368 366 363 363 361 360 359 358 357 356
290 287 299 297 297 299 300 301 304 306 306 306 306 305 306 307 308 308 309 309 309 309 310 309 309 310 311 310 311 312 312 312 313 314 315 314 314 314 315 316 318 318 322 324 328 336 347 356 360 363 366 368 364 371 374 372 367 372 370 369 365 367 367 367 368 368 366 365 366 367 368 368 368 369 368 366 365 365 364 361 361 361 360 359 359 358 357
289 289 295 297 299 298 300 301 300 299 302 303 305 305 306 307 308 308 309 310 309 310 309 311 310 310 311 311 310 311 311 312 313 314 314 314 314 315 317 317 317 318 320 323 326 333 344 355 359 362 366 369 374 374 370 366 365 373 370 368 366 367 368 367 366 367 367 364 363 365 365 365 365 364 366 366 365 364 363 362 361 360 361 360 359 359 358
292 296 297 297 297 299 301 300 300 300 301 301 303 305 306 306 306 308 309 311 309 310 310 312 311 310 311 311 311 311 311 312 312 314 314 315 315 317 316 315 317 315 319 322 326 333 345 354 358 362 365 368 371 374 374 368 367 372 369 365 367 369 368 367 366 366 367 366 365 365 364 365 367 369 369 366 366 367 367 367 363 361 361 360 361 362 361
286 288 290 294 288 289 294 297 299 300 302 302 302 303 304 305 305 306 306 308 310 310 311 311 312 310 310 311 312 311 312 312 313 313 314 315 316 317 316 315 315 316 320 323 327 336 347 355 358 360 362 365 367 369 371 377 373 370 371 368 367 366 366 364 363 364 365 363 364 363 364 364 343 329 308 299 311 366 364 333 321 324 338 361 363 361 360
286 293 295 296 295 294 296 298 300 301 302 301 301 302 303 304 306 306 306 307 308 309 311 313 313 312 312 312 313 312 312 312 313 314 315 315 316 316 315 314 314 316 319 323 330 339 348 354 356 358 360 361 365 366 368 371 370 372 372 367 364 364 363 362 358 361 362 362 364 364 364 355 349 343 340 332 302 296 306 312 305 300 304 314 329 339 359
295 297 297 297 296 293 296 299 300 301 302 302 302 303 304 304 305 306 306 307 307 308 311 312 314 313 313 313 313 313 313 313 314 315 316 317 317 317 316 315 316 317 319 323 332 336 344 352 353 355 355 357 360 361 365 366 368 371 375 368 364 363 363 362 359 358 363 362 362 363 364 357 354 352 350 345 337 307 298 302 301 298 297 299 306 323 334
293 298 298 299 299 299 301 302 301 302 303 303 301 302 303 303 304 306 306 307 308 309 309 311 313 314 313 313 313 313 313 314 315 316 317 317 316 315 315 316 318 319 321 328 335 336 339 346 351 352 353 353 357 359 362 362 364 365 366 368 366 363 363 362 361 359 361 363 361 363 363 357 356 356 354 351 346 338 325 302 298 298 299 299 298 301 314
299 299 300 300 300 300 302 302 300 301 301 302 302 302 304 306 305 306 306 307 308 310 311 312 312 313 314 313 314 313 314 314 315 315 315 314 314 314 314 315 319 323 326 332 336 335 336 338 344 347 347 348 353 356 358 354 352 350 355 353 350 354 359 363 360 361 362 364 362 363 365 360 359 358 356 356 351 344 342 341 340 322 307 298 298 305 299
300 301 299 296 297 298 300 298 297 301 302 303 302 302 303 303 305 305 306 308 309 312 312 313 314 314 315 315 315 314 313 314 314 314 314 314 313 313 314 317 322 325 328 332 333 334 335 336 336 339 342 347 352 355 356 350 348 348 348 348 347 348 354 356 346 345 355 364 362 364 365 362 359 358 358 357 352 349 350 349 349 349 345 333 308 295 311
300 302 300 295 294 296 299 301 303 302 302 302 302 301 302 303 303 303 304 306 307 308 310 311 312 313 314 315 315 313 313 314 313 313 313 313 314 314 315 319 323 325 327 327 327 333 334 334 333 334 337 341 347 353 354 352 347 345 344 346 346 348 347 347 351 350 350 355 361 365 367 364 363 360 359 357 352 353 351 354 354 347 337 330 322 309 301
300 300 301 302 301 302 304 305 304 302 302 303 303 302 302 301 301 301 302 303 305 306 307 309 311 313 314 315 315 313 314 314 313 312 312 313 314 315 318 322 322 324 325 325 325 329 329 330 331 331 334 338 341 346 351 351 348 346 344 343 340 340 343 346 346 347 349 354 361 367 358 361 361 362 361 359 355 356 358 357 350 342 335 330 330 332 323
300 301 300 300 301 302 302 300 300 301 302 303 302 302 301 300 299 299 301 302 303 303 305 307 308 309 312 314 315 315 314 314 314 313 313 314 315 318 322 323 322 323 322 322 322 325 325 327 329 330 334 337 339 341 349 349 345 343 344 343 341 337 337 339 341 345 350 353 357 350 359 364 364 361 359 359 358 357 348 342 340 338 337 337 335 339 336
301 301 301 300 300 299 299 300 301 301 302 302 302 301 301 300 299 298 299 301 302 303 304 305 306 308 310 313 315 317 316 315 315 314 314 316 318 321 322 321 320 320 319 320 321 323 324 325 326 328 334 336 336 337 341 345 344 343 342 342 341 330 326 328 332 338 340 343 349 352 355 356 359 357 352 349 345 342 342 342 343 343 341 341 341 337 334
300 300 299 299 299 298 298 299 300 300 301 302 301 300 300 299 298 298 299 300 301 303 303 304 304 306 309 312 314 316 316 315 315 315 317 319 321 321 320 321 321 322 321 321 321 322 322 322 323 326 333 335 335 335 337 342 342 340 339 341 340 339 333 330 337 334 335 337 341 346 349 352 350 348 346 344 343 341 342 343 343 341 340 339 337 334 335
298 297 297 297 297 297 297 298 298 298 300 300 300 301 301 301 300 300 300 302 302 303 302 303 305 306 308 311 313 314 315 315 315 317 318 318 320 319 319 321 321 321 322 321 321 321 321 321 322 326 331 333 333 333 335 338 340 340 341 339 338 338 336 329 330 336 336 336 335 335 337 342 346 347 345 343 342 341 341 340 338 336 335 334 334 335 335
299 298 298 299 298 296 296 297 298 299 300 301 302 301 301 301 301 301 301 302 302 302 302 304 306 308 309 311 313 314 314 313 314 318 318 319 318 319 320 321 321 320 320 321 321 320 320 320 322 324 329 332 332 332 332 335 338 336 335 335 334 332 333 332 331 333 332 331 331 333 335 333 332 332 333 335 337 338 336 332 329 327 326 326 326 324 313
303 302 302 301 301 300 300 299 299 299 299 299 299 301 301 301 301 301 302 302 301 302 304 306 307 309 311 313 314 314 313 313 315 316 318 317 317 318 319 319 318 317 317 318 318 318 320 320 321 323 327 330 331 330 331 331 337 335 335 333 332 332 330 330 329 328 329 330 330 329 329 328 328 330 330 330 329 328 328 327 327 326 324 323 323 323 319
303 302 302 302 302 301 301 301 301 301 300 300 301 301 301 301 301 300 301 301 302 304 305 306 308 313 314 313 312 313 313 314 316 317 317 316 317 317 317 316 315 314 314 315 316 317 319 319 322 324 325 328 330 330 329 332 339 339 334 332 330 331 331 328 327 326 326 326 325 324 324 325 325 325 325 326 326 326 326 325 323 323 322 322 323 324 324
304 303 302 302 302 302 301 301 301 301 301 301 301 301 301 301 301 302 302 302 303 304 304 306 308 310 310 312 313 313 313 314 317 316 317 317 316 315 314 314 314 313 313 311 314 317 317 319 321 323 323 323 327 329 329 332 337 338 335 332 331 330 329 328 326 325 324 324 324 323 323 323 322 322 323 323 323 325 325 324 323 323 322 322 321 320 320
303 303 303 302 302 302 302 302 303 302 302 302 301 303 302 302 302 301 301 302 302 303 305 306 307 309 311 312 311 310 310 311 312 315 316 315 314 313 312 312 312 311 310 311 315 317 317 319 320 321 319 320 321 326 329 330 331 333 334 330 329 328 327 325 325 325 324 323 322 321 321 320 320 320 321 321 321 321 322 321 321 321 321 320 318 318 317
302 304 304 303 303 303 302 302 303 302 302 301 301 301 303 303 303 302 301 301 302 304 304 304 306 306 306 308 308 309 309 309 310 311 312 312 313 311 309 310 311 312 313 316 317 316 318 317 317 317 318 317 319 324 328 330 329 328 328 330 329 326 324 324 322 321 321 321 320 319 318 318 318 317 317 317 317 317 317 317 316 316 315 315 315 315 315
302 302 302 302 302 302 302 302 302 302 303 303 302 300 302 302 302 301 301 301 302 304 303 304 304 304 304 305 306 307 308 308 309 309 309 310 310 310 309 309 311 313 314 315 315 315 316 316 315 314 315 316 317 319 325 327 326 323 324 323 323 325 325 325 323 321 320 320 319 318 317 316 317 317 316 316 316 316 315 314 314 313 313 313 313 313 313
302 302 302 302 302 302 302 302 301 302 303 303 303 303 303 302 302 301 301 301 302 303 302 303 304 304 303 303 304 305 308 309 308 307 308 308 307 307 306 305 309 311 313 313 313 313 314 314 314 312 313 314 315 319 321 324 321 318 318 318 317 317 317 317 320 321 319 318 317 316 315 315 315 314 315 315 315 314 314 314 313 313 313 311 310 310 311
302 303 303 302 302 302 302 302 302 302 302 303 304 304 304 303 302 302 302 302 302 302 302 302 305 304 304 305 305 305 305 307 307 306 306 306 305 306 305 306 308 309 312 312 311 310 310 312 312 313 312 313 314 317 319 319 316 315 314 314 314 313 313 313 313 312 315 318 317 314 313 313 312 311 311 311 310 310 310 310 310 310 310 310 310 310 311
301 302 302 302 302 302 302 302 302 302 302 303 304 304 304 304 303 303 303 302 302 302 302 302 303 304 305 304 305 304 304 305 306 306 305 305 306 306 306 306 308 308 311 309 308 308 308 308 310 311 313 312 313 313 314 313 313 312 311 311 311 311 310 310 310 310 310 309 309 310 310 310 310 311 311 310 310 309 309 309 308 308 307 307 307 307 308
301 301 302 302 302 303 302 302 302 302 301 302 304 304 304 304 303 302 302 302 302 303 302 301 301 302 303 304 304 303 304 304 303 304 304 303 304 305 306 306 306 308 310 308 306 306 306 307 308 309 312 311 311 311 310 309 309 309 309 308 308 308 308 308 308 307 307 307 307 307 306 307 306 306 306 306 307 307 307 306 305 306 306 306 305 305 305
302 303 303 303 303 303 302 302 302 302 302 303 303 303 303 303 303 303 302 302 302 303 303 302 302 302 302 303 304 304 304 304 304 304 302 301 300 301 305 307 305 306 307 307 306 305 305 306 308 309 309 310 310 310 307 307 307 307 307 306 306 306 306 306 306 306 306 305 305 305 305 305 305 305 304 305 305 305 305 304 304 304 304 304 305 305 304
301 302 303 303 302 302 302 303 303 304 303 302 301 302 303 304 303 303 303 302 302 302 302 303 303 303 303 303 304 305 305 304 305 305 305 304 303 303 305 306 305 306 306 307 305 304 305 308 307 307 308 308 308 306 305 306 307 306 305 305 305 305 304 304 304 304 304 304 304 303 303 303 303 304 303 303 303 304 305 306 305 304 303 304 305 305 306
301 301 302 302 302 303 303 303 303 302 302 301 300 300 302 303 303 303 303 304 303 303 303 303 304 304 305 304 303 302 303 302 303 305 306 306 306 306 306 306 307 307 306 304 304 304 304 304 305 306 306 306 306 303 303 303 303 303 303 304 304 304 304 303 303 303 303 303 304 304 304 304 303 303 303 303 303 303 303 303 302 303 303 303 303 304 304
301 301 301 302 302 302 302 302 301 300 300 300 300 301 301 302 303 303 303 303 303 303 302 303 304 305 305 305 305 305 304 303 300 301 304 304 304 304 304 304 305 305 305 305 304 305 305 305 305 305 305 305 303 302 302 302 302 302 302 302 302 302 302 302 301 301 302 302 302 301 301 301 301 301 302 302 302 302 302 302 302 302 303 303 302 302 302
302 301 301 302 302 302 301 301 301 300 299 300 301 301 302 302 302 303 303 303 303 302 302 302 303 303 304 305 305 305 306 306 303 301 303 303 303 302 303 304 304 304 303 302 302 302 304 304 304 304 304 304 302 301 301 301 301 300 300 300 300 300 301 301 301 301 301 301 301 301 300 300 300 300 300 301 301 301 302 302 302 302 303 303 303 303 303
302 302 301 301 301 300 300 300 300 300 301 301 300 301 302 302 300 300 302 302 302 303 302 302 302 303 303 303 304 305 305 305 305 304 304 303 303 302 302 302 302 303 302 301 301 301 304 303 303 303 302 300 300 301 301 301 301 300 300 300 300 299 300 300 300 300 300 300 300 300 300 300 300 301 302 302 302 302 301 301 301 301 301 302 302 302 302
302 301 301 302 301 302 302 302 302 302 301 300 301 302 301 300 300 301 302 302 302 302 301 302 302 302 303 303 303 304 305 305 305 305 303 303 304 304 303 302 302 302 302 301 300 299 299 300 300 301 300 300 299 300 299 299 300 300 301 300 300 300 300 300 300 300 300 300 300 299 299 299 299 299 299 300 300 300 301 301 302 302 301 301 301 301 300
303 302 303 302 302 301 301 301 303 302 302 301 301 301 301 300 300 300 301 303 302 302 301 301 300 302 303 303 303 303 304 304 305 304 304 303 302 302 303 303 302 302 301 300 300 300 299 300 301 302 301 299 299 299 300 300 299 298 298 300 300 300 300 300 300 299 299 299 299 299 300 300 299 299 299 299 299 299 299 299 299 299 300 299 300 300 300
Wind_Speed
20 21 21 18 17 16 15 16 18 19 18 15 16 16 17 16 11 8 8 7 11 11 3 7 10 14 11 13 13 10 13 15 17 17 14 15 18 16 17 18 16 9 4 14 17 17 17 22 21 20 20 20 17 17 17 16 17 19 17 17 18 19 18 17 17 18 16 16 15 15 15 14 14 15 15 14 13 13 13 13 13 13 14 15 14 13 13
18 18 19 19 19 16 17 16 17 17 19 19 17 18 17 18 17 14 14 12 14 12 6 5 8 11 10 10 10 12 13 15 17 16 14 12 13 14 17 18 16 10 11 10 4 9 17 21 18 20 18 17 19 19 19 19 17 18 16 17 16 18 20 17 16 16 15 14 15 15 15 15 14 14 14 13 13 13 14 14 12 12 11 13 15 14 13
16 17 18 19 19 19 19 17 17 18 19 19 18 16 16 17 19 14 16 13 13 8 7 5 5 7 10 10 10 10 11 14 15 14 13 13 13 14 15 14 14 12 11 11 9 11 14 13 7 15 13 15 17 19 18 20 19 18 19 16 16 17 17 16 15 15 14 15 15 16 16 15 14 13 13 13 12 11 13 14 13 11 11 12 15 15 15
12 14 16 18 19 19 18 18 19 20 19 17 15 14 12 13 15 12 11 12 13 8 6 6 8 11 13 13 15 11 10 13 13 12 11 10 12 15 15 14 14 14 14 13 10 7 4 8 15 18 8 9 13 15 15 18 19 19 18 17 18 15 15 14 13 15 14 15 15 16 16 16 16 15 13 13 12 12 12 15 13 12 12 12 12 14 13
13 14 15 15 17 17 18 19 18 18 18 17 17 16 17 18 15 10 10 12 10 6 4 8 10 9 11 10 9 11 13 12 11 10 12 12 14 15 15 14 13 14 15 13 12 11 2 8 9 11 14 14 6 13 13 14 14 17 17 19 16 14 14 15 14 14 14 15 15 15 16 16 16 15 14 13 14 14 13 13 13 12 12 12 12 12 13
11 13 15 14 12 16 14 6 10 15 18 18 20 17 17 18 17 13 9 13 13 12 9 9 10 9 9 8 8 8 9 8 11 11 11 12 13 13 13 12 13 14 12 13 14 14 10 7 8 9 10 11 10 10 10 10 12 9 14 14 15 15 14 14 14 14 14 14 15 15 15 15 15 16 15 14 14 13 12 11 12 13 13 12 11 11 11
11 11 12 12 15 13 11 11 12 13 16 18 20 20 18 18 17 16 16 19 19 17 16 9 8 6 6 7 10 10 13 13 12 12 12 13 13 12 12 12 14 13 13 13 14 14 14 10 7 8 10 12 6 2 1 8 5 10 11 11 12 15 14 14 14 14 15 15 15 14 15 14 14 15 16 14 14 13 14 12 12 12 13 12 11 11 12
10 11 9 10 11 10 14 16 17 16 16 15 18 22 21 14 13 14 17 20 21 17 18 13 5 8 8 7 4 13 14 14 14 13 13 14 14 13 12 13 12 11 13 14 13 14 14 14 11 9 8 10 12 15 15 12 9 11 11 11 12 14 14 15 16 16 15 15 14 14 15 15 15 15 15 15 14 13 13 14 11 11 11 11 12 12 12
11 10 11 12 10 12 14 14 11 7 6 9 11 9 7 8 10 12 10 18 19 20 11 12 11 10 9 9 5 15 16 16 15 14 14 14 14 14 14 15 14 13 13 13 13 13 14 15 13 8 10 11 12 13 13 12 14 16 15 12 12 15 16 16 16 17 17 16 15 15 15 15 16 16 15 15 13 12 13 13 14 14 13 14 11 13 13
8 12 9 9 11 11 10 13 3 3 5 4 5 10 11 3 12 12 12 12 16 17 14 14 14 9 5 6 4 13 16 16 15 15 14 14 14 15 16 16 15 15 14 14 14 14 15 17 14 8 8 14 13 11 11 15 18 14 15 15 13 15 17 17 16 16 16 16 16 16 15 16 16 15 14 13 14 13 14 14 15 15 14 14 12 13 13
8 10 11 8 8 10 10 1 3 3 2 4 5 6 11 7 14 15 10 10 10 11 13 12 12 8 4 5 2 13 16 16 14 15 14 15 15 16 16 16 18 18 16 17 17 17 16 17 16 13 13 14 15 13 13 15 14 13 14 15 15 16 17 18 15 15 15 16 16 16 16 16 15 15 16 14 13 12 13 14 13 12 12 13 12 12 15
11 10 10 10 8 9 4 6 5 6 6 5 6 10 7 11 13 13 12 9 10 10 12 11 9 7 6 8 12 15 16 15 15 14 16 17 18 17 17 17 18 18 17 17 16 16 16 15 15 12 13 14 15 14 15 15 17 18 19 19 16 15 15 15 13 14 15 15 15 16 16 15 14 14 13 13 14 14 14 13 12 12 13 13 14 14 13
14 14 11 10 12 3 10 5 8 6 5 6 6 9 3 9 12 11 10 10 9 9 11 9 8 7 7 9 12 16 17 17 15 13 14 15 17 18 18 18 19 17 17 16 17 18 16 17 17 14 12 13 13 13 11 16 19 19 18 16 14 12 13 16 16 16 15 15 17 15 14 15 15 14 14 14 15 14 16 14 13 12 13 13 14 12 13
13 12 12 13 9 5 9 9 11 5 4 8 8 4 4 6 9 9 10 10 10 9 9 8 8 11 14 14 12 13 16 17 16 15 15 17 17 17 18 19 18 17 18 19 20 19 18 18 16 14 11 12 11 11 11 15 18 18 14 13 13 12 14 16 17 16 17 15 15 14 15 14 14 14 14 14 14 15 15 13 13 13 11 11 12 12 11
6 5 9 10 13 3 17 18 8 10 4 4 1 5 6 6 8 9 9 8 9 10 10 11 11 13 15 17 15 13 15 16 17 18 17 17 18 19 20 21 22 20 19 20 21 20 19 18 17 15 16 11 11 11 12 14 17 15 12 13 13 13 14 15 14 15 15 16 15 13 14 15 15 15 14 15 15 13 14 12 13 13 12 10 10 10 10
4 5 10 4 4 7 12 12 5 7 3 4 4 5 7 6 6 7 7 8 9 10 10 12 13 14 15 15 16 15 15 15 16 16 17 16 18 20 20 20 20 21 20 20 21 22 19 18 17 16 14 12 10 12 13 12 14 13 10 12 13 13 13 15 14 14 14 15 14 13 14 14 14 14 14 14 13 12 13 12 12 12 11 11 10 10 11
4 4 5 9 8 7 7 10 7 6 8 6 6 6 6 7 6 7 8 9 10 10 12 13 13 13 12 14 15 16 15 15 16 17 17 16 18 18 19 21 21 21 20 22 23 23 20 20 18 13 11 13 10 12 11 10 11 11 11 13 13 13 14 14 14 13 13 13 14 14 13 14 14 14 15 14 12 12 13 12 11 11 11 12 12 11 10
8 12 11 6 6 10 11 12 7 6 8 5 6 7 7 6 7 7 8 10 11 11 12 12 12 12 13 14 14 14 14 14 15 15 15 17 17 18 19 20 22 22 22 22 22 23 21 19 15 7 12 14 12 9 8 9 11 10 11 12 13 14 14 13 13 13 14 15 14 15 15 13 13 13 14 14 13 12 13 13 11 12 11 11 12 11 10
8 3 2 11 12 12 11 9 10 8 9 10 8 8 8 9 9 10 10 10 11 12 12 13 13 14 13 13 13 12 11 13 15 14 14 15 16 16 19 20 22 21 21 20 22 23 23 18 14 12 13 14 10 8 9 9 11 10 11 12 13 13 13 13 13 13 16 15 16 16 16 15 15 14 13 13 13 13 13 13 13 12 12 11 11 11 12
6 8 12 12 14 15 10 4 8 10 11 11 11 10 9 10 11 11 12 11 12 11 11 12 12 13 13 13 12 11 11 11 12 13 13 14 16 17 17 19 20 21 21 21 21 23 21 16 12 12 11 12 7 6 8 12 12 10 10 12 13 13 14 13 12 13 13 16 17 15 17 16 16 16 14 14 14 14 13 13 14 13 12 12 12 13 13
9 10 7 12 16 12 1 6 10 8 9 11 12 12 12 12 12 13 12 11 11 11 12 13 13 13 13 13 11 11 11 10 10 12 13 13 14 15 17 20 21 20 20 21 22 23 21 15 11 9 10 9 11 4 5 7 8 10 10 12 13 13 14 12 13 12 12 12 13 14 14 14 11 8 11 15 14 12 12 14 13 14 14 13 13 13 11
6 6 9 13 10 9 12 15 14 13 12 12 12 12 12 12 12 12 12 12 12 12 13 12 12 12 12 12 11 11 7 8 11 13 13 13 14 15 15 15 17 20 21 20 21 22 18 12 8 8 7 8 7 8 4 3 5 7 9 11 12 14 13 15 15 13 13 16 15 14 14 10 7 5 9 12 7 7 13 5 5 2 9 12 14 13 12
7 10 10 9 10 12 13 14 15 14 12 12 13 12 13 13 12 12 12 13 12 12 12 11 12 12 11 12 12 11 6 7 9 11 13 14 14 15 16 18 19 21 21 22 21 20 14 8 7 5 6 7 7 5 7 7 3 4 9 10 11 13 14 15 15 15 15 16 16 14 13 9 8 8 6 7 14 14 11 7 7 10 9 6 2 8 10
9 8 9 9 9 12 14 15 15 14 12 11 12 13 12 13 12 12 12 12 14 13 12 12 12 12 12 11 10 9 6 7 9 11 12 13 13 14 14 15 17 19 21 20 16 16 15 7 5 5 5 6 6 6 5 6 6 3 5 11 11 12 13 12 14 14 14 14 14 15 12 12 10 11 9 8 6 12 13 10 11 11 11 10 8 2 7
6 6 8 8 10 12 10 11 12 11 9 9 10 12 12 12 12 12 13 13 13 14 14 12 12 11 11 11 9 8 6 6 7 10 13 14 14 15 15 17 16 17 16 14 12 13 14 11 5 4 5 6 7 6 5 5 7 5 5 4 11 14 12 12 12 13 15 14 13 14 12 14 13 12 10 10 9 6 6 10 13 13 13 13 12 11 7
4 4 6 9 10 7 7 9 9 8 10 11 11 11 12 12 13 13 13 13 12 12 13 13 13 11 10 10 8 8 6 6 7 9 9 11 11 14 15 17 17 16 14 12 10 12 13 15 11 8 9 10 9 7 6 7 7 8 8 6 10 10 7 3 4 9 14 13 13 14 12 14 14 13 13 10 9 9 9 7 6 9 13 15 13 10 12
4 4 3 6 6 8 7 8 8 11 11 11 11 11 11 11 12 12 12 12 11 10 11 10 10 11 10 9 11 8 4 5 5 5 7 9 12 13 14 14 17 17 14 13 11 12 14 13 12 11 12 12 11 9 5 4 6 6 6 6 5 8 18 10 2 9 13 12 13 12 12 13 14 13 12 12 10 10 10 9 8 7 6 5 10 13 8
3 4 2 2 7 9 10 9 7 8 9 9 10 10 10 10 10 11 11 11 10 11 10 9 8 9 9 8 7 7 6 5 4 5 6 8 11 11 13 15 15 15 14 15 15 14 13 11 12 12 13 13 12 10 7 5 5 6 7 6 5 2 4 10 9 7 12 13 11 11 12 12 13 12 12 11 10 9 9 9 8 7 6 5 4 6 12
5 1 3 4 5 6 7 6 6 6 7 7 8 9 9 10 10 10 10 10 10 10 10 10 10 9 9 8 6 7 4 2 4 4 5 7 11 12 12 13 14 15 15 16 16 15 15 14 14 14 14 14 13 12 7 8 6 5 6 6 7 8 7 5 6 9 13 14 12 9 11 11 11 11 10 10 10 10 8 7 7 7 7 5 5 5 7
6 5 6 7 6 5 5 6 6 6 7 7 8 9 9 10 10 9 10 11 10 10 10 12 10 10 10 9 7 7 6 4 3 4 5 6 9 10 9 12 11 11 12 14 15 15 16 16 14 13 14 15 14 14 8 6 7 7 7 8 8 7 5 5 5 6 10 10 10 3 8 9 9 8 10 10 11 9 8 8 8 8 7 6 5 5 5
7 7 7 8 9 8 6 5 5 5 6 7 8 8 10 10 10 10 11 11 10 10 11 10 11 11 10 9 10 8 6 4 4 4 7 7 7 7 9 9 9 9 11 13 15 15 15 15 14 13 14 14 15 13 12 7 7 6 6 7 7 9 11 9 7 6 6 8 9 5 3 7 8 9 9 10 10 10 10 9 9 8 7 7 6 5 5
8 8 9 8 9 11 10 7 7 7 8 8 8 9 9 11 12 13 12 12 12 11 11 11 11 11 10 9 10 10 8 6 4 5 6 7 3 5 7 7 7 8 8 11 13 14 14 14 15 16 14 12 14 14 12 8 6 7 8 7 8 6 5 4 4 6 7 5 5 6 5 6 6 9 9 9 10 11 10 9 9 8 7 6 6 5 6
7 8 9 9 10 11 11 11 11 10 9 9 7 7 7 8 9 10 11 11 11 10 11 11 10 10 10 10 10 10 8 5 6 5 5 3 4 5 6 6 7 8 8 8 11 12 13 14 14 15 14 14 14 14 13 12 8 7 7 7 8 8 8 8 7 6 8 3 4 6 6 5 6 7 9 10 10 10 10 10 9 8 7 6 6 6 6
6 7 7 9 9 10 12 12 11 10 9 8 7 7 8 8 10 11 11 10 10 11 11 11 11 10 10 9 9 10 8 6 5 2 3 5 6 7 7 7 7 7 6 8 11 11 12 14 15 15 14 14 13 12 13 12 9 9 9 9 9 8 9 9 10 8 7 6 4 6 8 11 11 10 9 8 9 9 10 10 9 8 8 7 6 4 6
5 5 6 7 8 9 10 10 10 11 10 10 9 8 8 9 8 10 12 11 11 11 11 11 11 10 9 9 8 8 6 5 4 3 5 7 7 7 7 7 8 8 9 9 11 11 11 14 15 16 15 13 12 12 12 12 8 8 8 9 9 9 9 9 10 9 7 6 8 9 10 10 9 9 10 12 12 13 12 11 8 7 7 7 7 8 10
5 5 5 7 7 8 10 10 10 11 10 8 7 8 9 10 13 11 13 13 12 11 11 11 10 9 3 1 2 6 7 7 3 5 6 7 7 6 7 8 8 10 10 10 11 11 11 12 21 24 14 11 12 13 14 12 7 8 8 8 9 9 10 9 9 9 10 9 10 11 10 13 13 12 11 10 10 10 10 10 9 9 7 7 9 10 10
4 5 6 6 6 8 9 8 9 9 10 9 7 7 9 11 11 11 11 10 10 11 12 12 9 8 8 8 7 6 7 8 5 5 6 6 7 7 9 10 11 10 9 10 11 11 11 12 21 23 14 11 12 13 14 18 9 7 8 8 9 9 9 10 10 10 11 11 11 10 11 12 11 12 12 11 10 10 9 9 10 9 9 9 9 10 11
6 6 5 6 6 7 8 8 9 9 10 11 8 6 7 8 10 11 10 11 11 12 12 11 10 9 7 6 8 10 10 9 11 9 7 8 8 10 10 10 8 9 9 9 8 9 10 14 20 15 12 12 13 12 14 17 16 10 8 10 10 9 9 10 10 11 10 10 11 12 11 10 10 10 11 11 10 10 10 10 10 10 10 10 11 11 11
7 5 5 6 6 7 7 7 8 9 10 11 10 7 6 7 8 9 10 10 11 11 11 11 10 11 12 11 9 9 11 10 11 11 9 9 9 10 10 11 10 10 8 7 7 8 10 13 11 10 10 11 13 12 13 14 15 9 8 8 10 9 10 9 11 12 11 9 9 11 12 12 12 11 9 9 10 11 12 13 12 11 11 10 11 10 10
7 6 6 5 5 6 7 7 8 8 9 10 10 8 6 7 7 8 10 10 11 12 12 11 11 10 11 12 11 10 9 9 10 10 11 9 9 9 9 10 11 11 12 13 9 8 14 20 13 10 10 11 12 11 10 13 12 9 9 9 8 8 9 9 10 10 11 10 11 11 11 13 12 11 10 10 10 10 10 11 12 11 11 11 10 10 10
6 7 5 4 5 5 7 7 7 8 9 10 10 11 8 6 7 8 10 10 10 11 11 11 11 11 12 11 11 10 8 8 10 11 11 10 10 9 10 10 11 10 11 11 11 11 14 13 11 10 9 10 9 14 9 13 11 10 10 10 10 9 9 9 9 10 11 11 10 9 10 11 13 13 11 10 10 9 9 9 9 10 10 10 10 9 10
7 7 6 5 4 6 7 7 7 8 8 9 10 11 11 9 7 7 8 8 9 10 11 12 16 13 11 10 11 10 10 10 10 11 12 12 11 10 9 9 10 11 17 15 13 13 11 10 11 10 8 8 9 17 16 10 10 10 10 11 10 10 10 10 10 9 9 9 10 10 11 11 13 14 12 11 10 9 9 9 10 10 10 10 10 9 8
6 6 6 5 5 7 6 6 6 7 8 9 9 9 10 10 8 7 7 8 10 10 11 11 13 14 13 11 10 11 10 10 9 9 10 11 13 13 10 9 9 12 18 13 11 8 9 8 8 9 14 12 11 15 15 11 11 11 11 11 11 11 11 11 10 10 9 9 9 9 9 10 11 11 11 11 10 8 8 9 10 10 10 9 9 9 9
6 6 7 7 5 5 4 4 5 8 8 7 7 9 10 10 9 8 7 8 9 10 10 11 12 12 12 11 10 9 8 9 9 8 8 9 11 13 12 10 9 13 19 12 11 10 9 9 10 14 19 18 17 16 11 10 11 11 11 11 11 11 11 11 11 10 10 10 9 9 9 10 10 11 11 11 9 8 7 8 9 10 9 9 8 8 9
7 10 10 7 6 4 3 4 7 8 7 6 6 8 9 9 10 9 8 7 8 8 8 9 10 11 11 10 9 9 9 8 8 8 9 10 11 11 10 12 12 11 13 14 10 10 10 12 16 21 17 18 18 17 11 11 11 11 11 11 12 11 11 11 11 11 11 11 11 10 10 10 9 10 11 11 11 10 9 9 9 10 11 11 10 10 9
6 9 8 9 7 6 4 5 6 6 6 5 6 8 9 9 9 9 10 9 7 6 7 7 8 10 10 10 9 8 7 8 9 9 8 7 8 7 11 14 12 15 20 19 11 10 11 21 20 18 18 19 20 14 12 12 12 12 12 12 12 12 12 11 12 12 12 11 11 11 11 12 12 10 10 10 10 11 10 10 10 10 10 10 10 9 9
5 7 7 7 8 7 5 5 5 7 7 7 8 8 8 8 8 7 8 8 8 7 6 6 7 8 8 9 8 8 7 7 8 8 8 7 9 11 13 17 17 20 17 14 14 13 12 14 16 17 18 20 19 12 12 12 12 12 12 12 12 11 11 12 12 12 12 12 14 14 15 14 12 12 11 10 11 10 10 11 11 11 11 11 11 11 10
5 6 6 6 7 7 6 6 6 7 7 7 7 7 8 7 7 7 8 8 9 9 8 6 6 7 8 9 9 9 7 6 7 8 7 7 8 8 9 9 11 15 16 15 17 18 21 19 19 19 20 19 14 12 13 13 13 12 12 12 12 11 11 11 11 12 12 12 12 11 11 11 12 12 13 12 11 10 10 12 12 11 11 11 11 12 13
5 5 5 5 6 6 6 6 6 6 7 7 7 7 7 7 6 7 7 8 8 8 8 7 7 6 7 8 9 8 8 7 7 7 7 8 8 9 10 13 18 16 12 11 11 11 18 19 19 20 22 18 13 13 13 13 13 13 13 12 12 12 12 12 11 11 11 12 12 12 13 13 13 13 12 11 11 12 12 10 11 11 11 11 11 12 11
4 5 6 4 5 6 6 6 6 5 5 6 7 6 6 6 6 7 6 7 7 8 8 8 7 6 5 6 6 7 8 8 7 8 9 10 10 10 11 12 13 17 16 12 12 12 16 20 19 19 15 12 12 12 12 13 13 13 12 13 12 12 13 14 14 15 12 12 11 11 11 12 11 13 12 10 10 10 10 11 11 15 20 13 11 11 11
3 4 6 4 5 5 6 6 5 5 5 6 6 6 5 6 6 6 6 7 6 7 7 8 9 8 7 7 7 7 7 7 8 10 8 8 9 13 14 11 13 13 13 13 13 12 12 12 12 12 13 12 12 12 12 12 12 13 13 12 12 11 11 12 11 12 11 12 11 11 10 10 11 10 10 9 10 10 10 10 9 8 9 9 10 10 10
5 6 6 5 5 5 5 6 5 4 5 5 5 5 5 5 5 6 7 9 7 7 6 7 8 8 7 7 8 8 7 8 7 7 8 9 9 9 11 14 10 11 11 11 11 11 11 12 14 16 15 12 11 11 13 16 12 12 12 12 11 11 12 11 10 11 11 11 11 10 10 9 9 10 10 9 9 10 10 10 9 9 9 9 9 9 9
Wind_Direction
272 276 282 286 294 294 292 293 289 289 295 299 285 292 295 298 274 255 274 271 255 247 96 11 13 347 13 38 42 23 4 13 17 4 13 43 37 38 45 36 36 33 154 170 175 185 192 191 194 194 190 193 192 190 199 192 193 204 193 190 188 185 187 190 187 187 184 183 182 182 185 186 189 189 190 193 187 183 186 193 196 197 189 187 189 191 190
278 277 278 280 273 271 270 266 278 290 293 287 286 289 283 282 271 232 264 291 298 303 51 340 22 337 357 11 40 32 12 2 11 356 356 28 33 44 39 30 26 23 25 7 341 204 193 191 194 194 188 188 191 192 196 190 191 200 185 188 187 187 189 191 187 184 181 181 180 181 182 185 189 188 189 191 189 185 182 190 194 197 195 183 189 191 190
262 269 274 273 267 259 254 258 267 272 272 270 270 286 297 298 297 256 236 262 279 271 157 245 76 11 357 336 22 25 359 356 356 353 4 13 18 33 34 26 20 18 27 21 43 21 349 328 254 197 186 186 189 199 196 196 195 195 189 185 188 188 189 189 183 181 181 182 179 180 181 183 186 189 189 188 191 187 181 185 191 193 197 190 187 192 194
270 266 265 261 265 264 266 267 261 259 261 265 267 261 259 266 264 266 282 288 266 260 338 50 32 23 33 23 1 5 345 346 343 356 17 21 12 15 21 20 7 12 10 16 35 97 247 292 315 311 267 193 201 198 197 200 198 198 195 185 189 189 184 185 181 182 184 183 182 182 179 182 184 188 189 187 188 188 184 183 188 190 196 199 190 186 192
262 262 262 268 266 258 250 244 246 255 260 263 269 265 262 259 259 246 253 267 262 328 23 310 35 25 20 23 355 347 330 346 353 3 10 11 11 8 5 3 0 359 357 352 355 356 85 180 208 235 274 278 239 208 204 206 192 202 203 193 187 183 183 181 183 183 183 184 184 182 184 182 183 185 188 187 187 189 189 183 182 190 196 198 198 190 187
261 271 277 271 259 245 244 252 249 241 245 248 248 253 254 260 249 233 254 276 289 286 277 266 54 15 10 2 348 333 335 0 14 4 14 15 7 1 1 354 353 354 347 343 335 330 327 324 315 304 271 229 217 220 226 219 199 199 209 200 182 183 181 180 181 182 184 186 185 185 184 183 181 185 188 188 187 187 188 180 184 190 195 199 201 200 193
266 258 261 259 252 251 261 265 253 237 241 242 251 254 253 255 261 252 255 256 258 272 278 291 55 17 1 1 343 21 39 22 15 8 3 6 2 354 354 348 341 339 333 331 325 319 318 316 293 285 277 246 236 286 253 276 249 208 211 208 182 177 181 177 178 181 185 187 187 184 184 184 183 186 188 188 187 186 190 187 184 187 194 199 201 205 204
250 257 247 253 254 268 276 282 295 297 302 291 277 247 239 254 284 270 266 264 256 259 264 281 28 28 3 340 344 51 37 23 17 2 358 355 350 348 344 335 331 327 325 321 310 305 302 300 303 294 271 277 233 207 203 201 213 234 219 210 183 176 179 179 180 182 183 187 186 185 184 184 185 188 188 188 187 185 189 193 187 185 191 200 200 203 205
261 253 244 246 260 259 254 263 267 318 325 17 348 303 272 289 291 292 351 350 322 270 288 349 10 9 349 339 25 29 28 10 12 357 355 347 343 342 335 330 323 318 310 301 300 298 293 295 293 284 290 286 267 219 184 203 219 215 211 207 187 180 182 182 180 182 184 186 186 185 185 185 187 188 188 188 188 184 189 192 190 189 192 199 199 202 203
257 261 258 249 244 251 251 257 295 331 1 28 340 289 281 337 13 14 11 0 1 352 3 3 347 352 341 318 292 17 6 4 357 350 345 342 338 340 333 325 318 317 313 313 310 306 302 296 287 271 269 261 251 242 202 199 208 213 202 207 194 184 185 184 183 182 183 184 185 185 186 189 188 188 188 188 189 186 189 191 195 192 191 196 198 202 202
250 260 261 243 248 251 258 5 22 348 342 342 294 260 256 38 13 16 3 10 5 359 3 349 348 349 321 270 114 9 355 349 352 343 342 338 339 334 330 325 320 320 320 313 303 293 284 275 270 264 258 254 259 245 210 205 205 205 210 207 194 187 187 186 181 180 182 184 185 185 188 189 188 186 188 186 188 186 192 195 196 190 191 196 200 201 203
228 232 244 250 231 258 245 58 8 336 329 295 274 258 241 20 3 3 6 6 7 355 354 349 352 2 344 351 334 340 344 340 346 347 338 338 336 332 328 326 325 318 310 303 298 292 283 277 275 262 244 247 249 245 216 207 204 205 204 209 202 190 184 181 178 178 184 185 186 187 185 185 185 184 182 185 189 190 193 196 196 194 190 195 201 204 202
231 228 241 256 253 127 46 1 346 331 329 313 254 242 22 339 354 346 352 354 359 357 353 359 338 347 343 322 321 330 337 336 342 345 337 336 333 328 328 327 324 315 313 310 304 299 292 286 280 269 267 253 240 239 228 206 206 211 207 198 194 184 178 184 182 180 183 184 185 186 185 186 187 185 186 188 189 189 194 197 197 197 195 194 201 202 204
230 224 232 236 254 63 327 360 303 303 280 240 254 34 268 306 326 343 334 340 348 346 341 344 326 321 321 315 319 335 337 333 334 338 341 336 334 331 328 325 324 323 317 313 307 300 294 292 290 278 247 235 245 238 233 221 206 207 202 187 184 182 179 185 188 183 184 183 187 187 187 185 187 189 188 188 188 188 195 196 195 196 199 195 198 201 205
229 218 242 239 244 48 352 346 307 34 322 354 294 304 319 320 334 321 326 327 328 335 326 326 320 317 323 319 316 332 333 332 336 339 343 341 337 334 332 329 328 326 321 315 308 301 295 291 288 285 284 243 227 235 237 224 210 204 186 177 179 180 177 182 186 186 185 183 185 188 189 189 191 190 187 190 189 185 191 193 192 193 196 199 198 197 200
316 229 228 231 6 312 327 346 339 320 343 329 321 333 305 336 313 312 321 311 308 312 316 313 315 314 314 313 315 322 331 334 334 337 339 340 338 333 328 325 322 321 316 313 308 301 294 289 285 282 282 274 226 230 236 225 205 192 177 171 172 174 176 180 183 185 183 185 185 189 189 188 192 191 188 190 186 184 188 190 188 191 191 197 204 202 199
285 318 316 320 346 0 330 302 298 285 300 316 336 318 302 298 310 309 302 302 306 310 312 307 306 307 309 315 321 323 326 331 333 334 337 338 335 330 327 323 320 319 314 311 308 299 294 290 280 277 283 281 245 227 230 211 192 182 170 170 169 173 175 179 182 183 181 186 186 189 190 190 194 193 190 188 187 184 185 189 190 189 190 193 199 206 208
317 281 271 314 345 349 335 323 344 325 294 322 331 316 303 299 303 313 300 304 305 305 303 299 297 296 302 306 311 317 323 328 326 327 329 335 333 329 327 325 325 319 313 311 310 304 299 299 288 311 312 282 249 235 218 194 182 173 167 166 171 170 175 178 182 184 184 188 187 191 194 193 194 195 191 190 189 182 184 190 190 188 189 190 195 202 207
332 274 113 343 342 330 328 356 343 343 353 340 330 312 311 306 308 301 300 297 299 296 293 289 290 290 293 298 301 312 322 325 323 321 325 328 327 323 323 321 320 317 316 314 313 309 303 303 308 308 312 296 250 224 203 182 176 170 164 165 169 170 172 177 183 191 191 193 192 193 197 195 195 195 194 193 191 184 184 190 190 189 188 188 192 196 204
283 294 315 325 332 315 294 4 2 344 338 333 326 314 304 302 297 292 289 289 284 286 283 288 289 289 291 293 298 308 318 320 318 318 321 321 322 321 318 318 319 318 314 310 308 305 300 296 299 309 304 321 281 189 188 176 174 163 162 165 170 173 174 176 186 191 192 190 189 194 196 196 195 195 195 197 192 184 185 188 189 188 186 188 192 194 200
294 289 309 344 325 310 60 358 345 330 323 322 310 306 306 301 298 296 294 292 293 290 290 290 289 289 288 291 297 302 310 312 313 316 318 317 314 313 319 320 320 316 311 306 302 300 296 290 297 299 314 329 333 224 173 189 168 159 160 163 170 173 176 179 189 193 193 190 190 195 193 195 193 194 199 195 190 185 192 192 193 186 188 190 192 196 196
312 332 327 335 331 318 318 320 321 324 316 312 309 302 296 299 300 302 299 296 291 287 284 286 288 286 288 288 292 300 303 302 310 312 314 316 314 313 315 309 309 312 310 302 299 300 295 284 288 305 325 326 349 351 338 210 186 165 156 169 174 178 180 187 196 194 196 198 192 195 193 174 123 99 51 55 20 189 186 98 75 193 195 192 192 193 198
303 316 316 317 307 296 292 305 311 308 312 305 301 299 295 294 295 297 296 293 288 282 278 281 285 286 289 288 292 291 287 301 307 306 310 314 318 318 318 318 318 318 310 304 302 307 296 287 280 320 341 348 353 16 3 347 327 208 171 175 183 185 185 193 198 196 196 197 193 197 188 146 156 128 122 58 47 44 45 79 85 73 71 71 141 189 198
282 297 311 310 300 297 302 303 303 302 303 303 298 297 296 296 297 299 295 291 291 288 285 281 283 284 283 288 285 285 296 302 305 306 309 311 314 310 309 316 310 304 302 298 307 319 306 294 318 344 338 356 6 7 14 1 326 305 203 182 188 192 191 194 199 195 196 197 190 193 179 162 155 156 148 138 84 38 43 58 73 73 64 51 42 64 160
282 311 304 302 296 295 294 293 292 295 302 301 300 300 305 305 299 298 295 292 285 283 282 278 276 277 284 283 277 288 296 299 302 305 310 312 314 313 313 314 309 301 292 295 318 324 325 323 305 324 2 357 356 11 6 7 351 289 254 265 200 191 196 198 201 195 193 197 189 192 174 166 165 166 156 152 137 120 52 59 73 73 60 52 49 44 75
270 290 305 305 297 299 307 309 303 312 316 313 306 303 303 305 302 299 295 292 286 283 281 279 273 269 272 273 281 284 287 289 298 306 305 315 314 317 317 316 310 303 301 310 334 332 345 343 347 11 17 7 359 359 21 31 30 12 1 359 331 332 309 270 272 222 199 200 189 190 171 167 165 169 168 155 140 140 136 135 90 66 60 52 42 49 54
245 209 308 314 309 316 318 311 301 306 308 312 309 312 312 309 311 306 300 292 289 293 295 295 291 282 267 271 274 276 271 276 283 299 304 309 308 310 308 306 310 315 314 341 341 343 345 349 347 360 7 6 0 4 37 54 58 47 14 14 9 329 316 314 195 274 255 218 192 186 166 171 166 168 164 159 144 146 151 147 148 140 149 79 44 37 47
12 163 174 300 314 311 304 302 290 297 300 316 326 320 316 314 314 316 310 307 312 314 313 316 321 318 295 271 269 256 236 238 263 279 300 305 300 296 302 297 317 326 341 354 344 342 346 350 357 358 357 351 355 358 33 72 72 58 35 37 53 36 288 319 318 277 265 261 220 181 166 168 167 162 159 151 143 147 143 140 139 132 100 74 61 48 62
343 3 207 239 257 277 288 286 285 300 313 317 318 329 328 328 325 321 322 320 320 317 313 320 320 318 316 303 277 279 272 252 256 288 293 298 296 298 307 313 334 343 353 356 347 344 348 349 359 2 357 347 344 347 19 65 78 75 74 30 39 43 44 9 299 274 275 278 248 193 157 153 156 155 156 146 142 143 141 138 117 103 104 113 116 84 66
339 341 340 346 342 320 312 328 318 319 327 326 332 338 343 336 332 329 327 328 325 321 320 320 318 316 317 311 299 281 288 294 293 273 279 280 290 291 325 331 335 356 0 358 348 345 348 348 350 352 353 353 349 344 352 69 82 76 69 78 78 47 43 43 8 340 274 259 289 244 145 131 122 121 125 130 136 128 102 94 96 104 112 116 111 115 117
346 349 353 354 342 341 352 334 332 330 333 334 344 348 351 347 339 335 331 329 326 321 320 316 310 308 307 314 315 305 288 290 272 272 272 263 274 314 342 339 344 358 4 355 350 346 343 343 345 350 345 351 350 350 350 45 59 70 54 54 65 63 43 43 54 29 356 318 302 322 345 89 101 105 100 100 88 88 93 98 105 106 108 123 128 113 113
354 350 346 358 346 348 352 0 351 353 350 348 351 0 354 346 346 339 333 327 327 320 315 311 310 308 311 309 304 303 288 271 264 261 263 264 306 353 345 342 344 342 14 7 354 347 340 341 350 346 336 346 351 354 352 8 46 55 59 51 49 35 39 50 99 72 28 31 7 27 15 51 69 89 95 93 97 101 108 109 102 101 113 120 114 112 137
2 347 350 352 350 353 351 353 359 358 357 353 356 356 348 340 338 335 329 327 330 325 315 305 300 298 296 296 290 291 277 271 272 254 261 314 28 3 346 341 351 348 6 18 1 350 343 346 346 341 343 348 353 354 0 359 26 47 52 39 35 37 32 14 15 86 91 9 60 80 39 52 85 94 95 102 104 106 105 104 106 106 110 114 114 125 130
5 1 349 354 355 352 346 355 358 358 359 1 0 359 350 340 336 338 336 340 329 320 315 308 295 289 283 281 279 277 278 274 272 280 23 38 24 11 5 1 359 358 2 15 10 2 351 347 346 344 341 344 348 358 1 354 16 39 49 49 40 38 35 25 21 30 59 69 30 58 74 78 75 74 64 62 67 79 86 88 90 90 95 97 91 80 62
11 6 360 1 358 353 358 358 359 359 4 2 1 1 355 342 341 338 344 345 333 320 310 300 293 281 270 258 256 266 257 266 297 34 57 44 26 21 22 18 11 356 4 20 16 6 353 345 344 345 341 335 346 358 6 353 7 40 45 60 60 59 49 48 39 23 24 26 62 66 62 64 63 65 80 90 96 98 97 95 89 89 90 90 93 86 80
11 11 5 7 0 1 3 360 3 5 8 10 3 1 352 353 353 350 345 347 334 321 319 318 308 303 261 125 2 354 349 326 7 67 59 50 43 26 27 36 29 17 2 7 13 2 350 351 350 350 344 337 348 354 3 3 33 34 38 47 62 66 72 65 60 52 42 33 41 56 63 71 73 69 68 72 76 86 94 98 97 97 89 86 91 91 89
30 17 13 10 12 5 5 2 4 6 7 18 20 6 358 359 359 347 347 340 340 335 338 329 335 14 53 54 53 35 26 5 12 55 54 51 49 36 30 31 29 23 14 11 359 347 349 359 355 354 356 349 349 355 356 4 25 47 63 44 44 49 64 69 61 63 59 53 40 41 51 58 61 63 63 64 68 69 67 76 81 81 81 81 77 77 78
39 16 17 19 16 9 9 7 3 7 10 15 32 31 14 1 358 357 353 351 350 346 342 347 1 3 10 52 48 41 30 18 16 23 37 40 42 37 34 28 22 14 14 3 345 348 349 8 6 357 1 356 346 344 355 5 36 30 45 56 60 50 44 51 62 62 50 50 64 59 45 50 55 58 61 60 62 65 70 75 76 79 77 76 76 77 79
43 24 17 20 18 14 12 14 5 12 14 17 21 42 26 11 1 357 357 356 352 355 358 358 358 16 14 25 39 38 33 22 20 18 23 32 37 43 42 32 21 11 355 348 357 0 1 12 17 7 1 358 345 335 350 14 40 39 38 41 60 65 59 58 57 66 63 55 51 66 69 64 59 57 54 58 67 67 65 66 71 73 76 79 81 79 80
52 51 23 5 22 15 16 13 14 12 18 20 20 30 38 21 13 3 359 0 2 0 4 5 16 22 18 22 23 30 34 32 26 26 26 25 31 33 36 30 19 8 5 11 11 12 15 20 24 19 9 355 354 342 354 18 39 38 35 39 37 44 59 61 62 66 70 66 60 62 72 76 71 62 60 61 63 66 74 73 76 79 82 84 84 83 83
44 59 55 12 18 21 26 13 13 18 15 16 20 22 35 48 28 15 9 5 360 358 1 8 16 24 26 24 23 13 13 40 45 36 31 29 29 30 29 27 14 8 7 15 18 20 22 21 26 23 18 4 348 352 355 25 29 34 37 34 34 37 43 41 53 63 71 69 68 61 58 66 73 70 60 53 51 55 59 67 72 77 81 82 80 81 82
43 63 64 52 12 26 36 12 19 20 21 18 16 18 29 46 50 34 17 7 5 8 10 9 16 22 28 30 25 18 14 23 46 49 40 37 29 24 28 32 20 17 18 23 17 22 24 20 22 24 27 15 10 7 17 32 35 36 37 38 41 38 38 35 38 38 48 70 80 81 78 74 75 81 77 69 58 53 55 61 66 66 71 77 82 80 77
36 46 65 64 41 41 34 20 14 26 30 22 12 17 23 33 49 49 31 22 15 13 14 9 11 13 20 25 30 29 22 10 25 46 56 47 38 29 24 23 21 24 27 28 26 19 22 20 24 30 37 40 41 31 28 31 35 35 36 36 39 42 43 45 41 37 39 46 57 60 64 78 81 81 83 82 78 68 65 64 67 68 67 70 72 73 72
36 47 70 67 53 46 33 9 24 50 49 21 6 19 22 32 39 50 44 29 24 22 18 14 11 12 11 14 31 33 25 20 24 28 48 49 46 40 31 29 22 27 29 33 32 27 21 19 30 41 42 40 48 54 49 43 43 43 43 43 41 40 41 43 44 47 50 52 50 49 55 59 67 74 79 76 77 75 69 71 75 73 70 63 63 69 73
61 78 79 68 62 59 32 18 37 43 39 41 41 31 22 26 34 45 53 53 38 31 25 21 18 13 9 9 19 34 30 27 26 31 42 47 48 43 33 41 40 37 37 38 37 32 27 30 31 35 42 45 47 51 55 54 53 52 52 52 51 51 50 49 51 53 55 58 61 61 63 63 64 69 78 82 82 78 77 78 74 74 80 81 76 72 68
69 96 82 66 62 64 50 39 43 45 43 39 45 45 32 25 30 34 41 55 63 45 34 30 28 22 13 12 14 22 37 32 29 31 39 40 52 52 51 53 50 51 50 50 49 45 45 44 38 36 43 50 53 53 51 52 53 56 55 54 56 57 57 59 59 61 61 60 58 60 64 71 70 66 68 75 79 80 77 77 81 78 75 75 77 78 77
56 56 58 56 62 52 47 48 51 54 43 31 34 34 33 29 26 29 38 54 72 73 57 43 39 36 30 23 19 22 25 41 40 29 29 27 40 50 50 54 55 54 53 52 50 50 49 50 47 47 50 52 54 57 59 60 60 61 59 59 57 59 60 60 61 63 66 69 70 69 68 69 69 70 69 66 68 70 72 72 73 72 70 69 66 63 64
68 61 67 53 56 64 57 49 39 42 44 38 29 33 34 35 33 33 32 38 54 69 66 53 46 47 42 38 28 26 24 27 50 40 22 34 40 42 42 44 46 48 48 47 48 43 38 37 43 49 55 59 58 55 55 57 60 58 59 58 58 59 62 64 66 67 67 66 65 65 64 64 67 68 69 67 65 65 69 72 74 69 65 65 69 70 69
88 85 77 71 64 65 53 43 48 43 35 29 31 33 29 34 36 38 36 37 43 51 61 66 62 58 54 47 43 31 33 38 43 53 42 44 47 49 49 47 48 49 51 52 49 48 44 42 41 45 50 53 55 58 61 62 60 62 61 60 58 56 54 55 56 59 62 66 66 69 72 71 70 70 69 66 66 64 62 60 63 64 69 69 67 64 63
61 89 84 63 63 46 42 51 50 33 34 35 33 28 26 23 34 35 30 37 40 48 55 59 63 67 62 54 43 43 35 37 47 57 57 53 53 54 53 55 54 50 49 51 49 45 40 40 42 44 46 48 49 51 52 53 55 57 59 61 61 64 64 64 62 58 58 61 58 55 57 61 63 64 63 63 63 64 70 70 71 68 66 65 65 65 64
105 87 92 94 74 69 73 62 58 54 43 37 31 29 29 34 36 35 31 28 34 45 55 60 62 65 72 66 62 50 48 40 43 54 58 58 58 59 58 55 52 49 47 46 43 43 41 40 38 39 42 46 49 50 51 54 55 52 51 53 56 58 56 56 61 64 62 64 65 62 60 61 61 59 55 53 53 54 51 49 50 51 59 66 70 74 74
128 99 99 75 75 75 59 57 53 69 86 64 44 29 33 30 30 45 43 28 37 53 55 60 61 60 72 84 77 67 60 56 48 39 49 55 58 58 56 53 51 46 43 44 47 46 43 41 42 42 43 45 45 48 49 51 54 58 57 53 51 53 56 57 56 57 59 60 61 59 53 50 53 60 61 60 61 60 61 58 55 56 56 54 55 55 57